Flight Track Log - Related Links

Times and Time Zones

All times are in EDT time to prevent confusion due to time zone crossing. See the SWA1844 flight status page for this flight to view local times or setup timezone preferences in your user account.

Time Position Orientation Groundspeed Altitude Reporting Facility
EDT Latitude Longitude Course Direction KTS MPH feet Rate Location/Type
Tue 12:47:47 AM 33.4333 -112.0667 270° West 183 211 3,700  Level Phoenix TRACON
Tue 12:48:14 AM 33.4353 -112.0919 275° West 180 207 4,600 2,864 Climbing Albuquerque Center
Tue 12:49:15 AM 33.4400 -112.1608 275° West 196 226 7,900 2,876 Climbing Albuquerque Center
Tue 12:50:15 AM 33.5022 -112.1825 344° North 284 327 10,400 2,579 Climbing Albuquerque Center
Tue 12:51:16 AM 33.5789 -112.1136 37° Northeast 341 392 13,100 2,951 Climbing Albuquerque Center
Tue 12:52:17 AM 33.6650 -112.0447 34° Northeast 366 421 16,400 3,521 Climbing Albuquerque Center
Tue 12:53:17 AM 33.7689 -111.9628 33° Northeast 395 455 20,200 3,719 Climbing Albuquerque Center
Tue 12:54:18 AM 33.8564 -111.8900 35° Northeast 388 447 23,900 2,331 Climbing Albuquerque Center
Tue 12:55:18 AM 33.9656 -111.8814 North 397 457 24,900 1,537 Climbing Albuquerque Center
Tue 12:56:19 AM 34.0828 -111.8967 354° North 418 481 27,000 2,115 Climbing Albuquerque Center
Tue 12:57:20 AM 34.2025 -111.9100 355° North 425 489 29,200 2,033 Climbing Albuquerque Center
Tue 12:58:20 AM 34.3225 -111.9264 354° North 441 507 31,100 2,083 Climbing Albuquerque Center
Tue 12:59:21 AM 34.4478 -111.9436 354° North 449 517 33,400 2,231 Climbing Albuquerque Center
Tue 01:00:21 AM 34.5689 -111.9603 354° North 443 510 35,600 1,785 Climbing Albuquerque Center
Tue 01:01:22 AM 34.6881 -111.9764 354° North 433 498 37,000 694 Climbing Albuquerque Center
Tue 01:02:22 AM 34.8075 -112.0003 351° North 427 491 37,000  Level Albuquerque Center
Tue 01:03:23 AM 34.9156 -112.0519 339° North 419 482 37,000  Level Albuquerque Center
Tue 01:04:24 AM 35.0261 -112.0986 341° North 422 486 37,000 496 Level Albuquerque Center
Tue 01:05:24 AM 35.1364 -112.1444 341° North 420 483 38,000 992 Climbing Albuquerque Center
Tue 01:06:25 AM 35.2481 -112.1933 340° North 425 489 39,000 992 Climbing Albuquerque Center
Tue 01:07:25 AM 35.3814 -112.2514 340° North 427 491 40,000 496 Climbing Albuquerque Center
Tue 01:08:26 AM 35.4944 -112.2994 341° North 431 496 40,000  Level Albuquerque Center
Tue 01:09:27 AM 35.6078 -112.3494 340° North 435 501 40,000  Level Albuquerque Center
Tue 01:09:56 AM 35.6522 -112.3689 340° North 434 499 40,000  Level Los Angeles Center
Tue 01:10:57 AM 35.7647 -112.4183 340° North 434 499 40,000  Level Los Angeles Center
Tue 01:11:58 AM 35.8772 -112.4669 341° North 433 498 40,000  Level Los Angeles Center
Tue 01:12:59 AM 35.9972 -112.5192 341° North 433 498 40,000  Level Los Angeles Center
Tue 01:14:00 AM 36.1125 -112.5708 340° North 440 506 40,000  Level Los Angeles Center
Tue 01:15:02 AM 36.2508 -112.6328 340° North 440 506 40,000  Level Los Angeles Center
Tue 01:16:03 AM 36.3661 -112.6842 340° North 440 506 40,000  Level Los Angeles Center
Tue 01:17:04 AM 36.4822 -112.7347 341° North 441 507 40,000  Level Los Angeles Center
Tue 01:18:05 AM 36.6000 -112.7883 340° North 448 516 40,000  Level Los Angeles Center
Tue 01:19:06 AM 36.7183 -112.8422 340° North 452 520 40,000  Level Los Angeles Center
Tue 01:20:07 AM 36.8131 -112.8847 340° North 452 520 40,000  Level Los Angeles Center
Tue 01:21:09 AM 36.9536 -112.9494 340° North 448 516 40,000  Level Los Angeles Center
Tue 01:22:10 AM 37.0719 -113.0025 340° North 450 518 40,000  Level Los Angeles Center
Tue 01:22:38 AM 37.1411 -113.0344 340° North 450 518 40,000  Level Salt Lake Center
Tue 01:23:39 AM 37.2578 -113.0881 340° North 446 513 40,000  Level Salt Lake Center
Tue 01:24:39 AM 37.3747 -113.1417 340° North 445 512 40,000  Level Salt Lake Center
Tue 01:25:13 AM 37.4225 -113.1633 340° North 442 509 40,000  Level Los Angeles Center
Tue 01:25:40 AM 37.4922 -113.1983 338° Northwest 446 513 40,000  Level Salt Lake Center
Tue 01:26:40 AM 37.5864 -113.2417 340° North 445 512 40,000  Level Salt Lake Center
Tue 01:27:41 AM 37.6964 -113.3142 332° Northwest 443 510 40,000  Level Salt Lake Center
Tue 01:28:41 AM 37.8253 -113.4019 332° Northwest 437 503 40,000  Level Salt Lake Center
Tue 01:29:42 AM 37.9336 -113.4769 331° Northwest 441 507 40,000  Level Salt Lake Center
Tue 01:30:42 AM 38.0431 -113.5522 332° Northwest 444 511 40,000 198 Level Salt Lake Center
Tue 01:31:43 AM 38.1533 -113.6281 332° Northwest 449 517 40,400 496 Climbing Salt Lake Center
Tue 01:32:43 AM 38.2656 -113.7044 332° Northwest 455 524 41,000 298 Climbing Salt Lake Center
Tue 01:33:44 AM 38.3775 -113.7825 331° Northwest 458 527 41,000  Level Salt Lake Center
Tue 01:34:44 AM 38.4883 -113.8608 331° Northwest 455 524 41,000  Level Salt Lake Center
Tue 01:35:45 AM 38.6017 -113.9381 332° Northwest 459 528 41,000  Level Salt Lake Center
Tue 01:36:45 AM 38.7119 -114.0175 331° Northwest 456 525 41,000  Level Salt Lake Center
Tue 01:37:46 AM 38.8239 -114.0961 331° Northwest 458 527 41,000  Level Salt Lake Center
Tue 01:38:46 AM 38.9333 -114.1736 331° Northwest 452 520 41,000  Level Salt Lake Center
Tue 01:39:47 AM 39.0414 -114.2514 331° Northwest 447 514 41,000  Level Salt Lake Center
Tue 01:40:47 AM 39.1494 -114.3286 331° Northwest 444 511 41,000  Level Salt Lake Center
Tue 01:41:48 AM 39.2508 -114.4067 329° Northwest 443 510 41,000  Level Salt Lake Center
Tue 01:42:48 AM 39.3708 -114.4914 331° Northwest 441 507 41,000  Level Salt Lake Center
Tue 01:43:49 AM 39.4769 -114.5628 333° Northwest 449 517 41,000  Level Salt Lake Center
Tue 01:44:49 AM 39.5803 -114.6386 331° Northwest 447 514 41,000  Level Salt Lake Center
Tue 01:45:49 AM 39.6836 -114.7139 331° Northwest 446 513 41,000  Level Salt Lake Center
Tue 01:46:50 AM 39.8031 -114.8033 330° Northwest 445 512 41,000  Level Salt Lake Center
Tue 01:47:50 AM 39.9067 -114.8792 331° Northwest 446 513 41,000  Level Salt Lake Center
Tue 01:48:51 AM 40.0128 -114.9558 331° Northwest 450 518 41,000  Level Salt Lake Center
Tue 01:49:51 AM 40.1317 -115.0456 330° Northwest 447 514 41,000  Level Salt Lake Center
Tue 01:50:51 AM 40.2358 -115.1222 331° Northwest 449 517 41,000  Level Salt Lake Center
Tue 01:51:52 AM 40.3408 -115.2006 330° Northwest 452 520 41,000  Level Salt Lake Center
Tue 01:52:52 AM 40.4642 -115.2928 330° Northwest 457 526 41,000  Level Salt Lake Center
Tue 01:53:53 AM 40.5656 -115.3714 330° Northwest 449 517 41,000  Level Salt Lake Center
Tue 01:54:53 AM 40.6717 -115.4497 331° Northwest 455 524 41,000  Level Salt Lake Center
Tue 01:55:53 AM 40.7944 -115.5433 330° Northwest 457 526 41,000  Level Salt Lake Center
Tue 01:56:54 AM 40.8978 -115.6217 330° Northwest 452 520 41,000  Level Salt Lake Center
Tue 01:57:54 AM 41.0011 -115.7008 330° Northwest 450 518 41,000  Level Salt Lake Center
Tue 01:58:55 AM 41.1239 -115.7931 331° Northwest 453 521 41,000  Level Salt Lake Center
Tue 01:59:56 AM 41.2264 -115.8728 330° Northwest 450 518 41,000  Level Salt Lake Center
Tue 02:00:56 AM 41.3292 -115.9508 330° Northwest 447 514 41,000  Level Salt Lake Center
Tue 02:01:57 AM 41.4314 -116.0297 330° Northwest 445 512 41,000  Level Salt Lake Center
Tue 02:02:57 AM 41.5522 -116.1242 330° Northwest 449 517 41,000  Level Salt Lake Center
Tue 02:03:57 AM 41.6567 -116.2056 330° Northwest 453 521 41,000  Level Salt Lake Center
Tue 02:04:58 AM 41.7608 -116.2883 329° Northwest 455 524 41,000  Level Salt Lake Center
Tue 02:05:58 AM 41.8844 -116.3869 329° Northwest 459 528 41,000  Level Salt Lake Center
Tue 02:06:58 AM 41.9897 -116.4683 330° Northwest 458 527 41,000  Level Salt Lake Center
Tue 02:07:59 AM 42.0958 -116.5528 329° Northwest 454 522 41,000  Level Salt Lake Center
Tue 02:08:59 AM 42.2022 -116.6381 329° Northwest 462 532 41,000  Level Salt Lake Center
Tue 02:09:59 AM 42.3253 -116.7367 329° Northwest 459 528 41,000  Level Salt Lake Center
Tue 02:11:00 AM 42.4314 -116.8211 330° Northwest 461 531 41,000  Level Salt Lake Center
Tue 02:12:00 AM 42.5367 -116.9069 329° Northwest 460 529 41,000  Level Salt Lake Center
Tue 02:13:00 AM 42.6592 -117.0061 329° Northwest 459 528 41,000  Level Salt Lake Center
Tue 02:14:01 AM 42.7631 -117.0917 329° Northwest 456 525 41,000  Level Salt Lake Center
Tue 02:15:01 AM 42.8672 -117.1772 329° Northwest 456 525 41,000  Level Salt Lake Center
Tue 02:16:01 AM 42.9714 -117.2625 329° Northwest 456 525 41,000  Level Salt Lake Center
Tue 02:17:01 AM 43.0908 -117.3608 329° Northwest 450 518 41,000  Level Salt Lake Center
Tue 02:18:02 AM 43.1944 -117.4461 329° Northwest 451 519 41,000  Level Salt Lake Center
Tue 02:19:02 AM 43.2981 -117.5314 329° Northwest 452 520 41,000  Level Salt Lake Center
Tue 02:20:02 AM 43.4181 -117.6336 328° Northwest 454 522 41,000  Level Salt Lake Center
Tue 02:21:03 AM 43.5219 -117.7189 329° Northwest 455 524 41,000  Level Salt Lake Center
Tue 02:22:03 AM 43.6250 -117.8053 329° Northwest 451 519 41,000  Level Salt Lake Center
Tue 02:23:03 AM 43.7275 -117.8925 328° Northwest 450 518 41,000  Level Salt Lake Center
Tue 02:24:04 AM 43.8478 -117.9950 328° Northwest 449 517 41,000  Level Salt Lake Center
Tue 02:25:04 AM 43.9506 -118.0822 329° Northwest 449 517 41,000  Level Salt Lake Center
Tue 02:26:04 AM 44.0525 -118.1703 328° Northwest 449 517 41,000  Level Salt Lake Center
Tue 02:27:05 AM 44.1553 -118.2564 329° Northwest 449 517 41,000 -50 Level Salt Lake Center
Tue 02:28:05 AM 44.2739 -118.3597 328° Northwest 449 517 40,900 -304 Descending Salt Lake Center
Tue 02:28:24 AM 44.3081 -118.3894 328° Northwest 448 516 40,600 -675 Descending Seattle Center
Tue 02:29:25 AM 44.4164 -118.4825 328° Northwest 454 522 40,000 -298 Descending Seattle Center
Tue 02:30:25 AM 44.5236 -118.5756 328° Northwest 456 525 40,000  Level Seattle Center
Tue 02:31:25 AM 44.6294 -118.6681 328° Northwest 452 520 40,000  Level Seattle Center
Tue 02:32:26 AM 44.7347 -118.7628 327° Northwest 452 520 40,000  Level Seattle Center
Tue 02:33:26 AM 44.8422 -118.8556 329° Northwest 453 521 40,000  Level Seattle Center
Tue 02:34:26 AM 44.9469 -118.9489 328° Northwest 451 519 40,000  Level Seattle Center
Tue 02:35:26 AM 45.0519 -119.0431 328° Northwest 451 519 40,000  Level Seattle Center
Tue 02:36:27 AM 45.1561 -119.1375 327° Northwest 448 516 40,000  Level Seattle Center
Tue 02:37:27 AM 45.2592 -119.2297 328° Northwest 444 511 40,000  Level Seattle Center
Tue 02:38:27 AM 45.3581 -119.3369 323° Northwest 449 517 40,000  Level Seattle Center
Tue 02:39:28 AM 45.4575 -119.4425 323° Northwest 451 519 40,000  Level Seattle Center
Tue 02:40:28 AM 45.5556 -119.5489 323° Northwest 446 513 40,000  Level Seattle Center
Tue 02:41:28 AM 45.6539 -119.6558 323° Northwest 447 514 40,000  Level Seattle Center
Tue 02:42:28 AM 45.7514 -119.7619 323° Northwest 446 513 40,000  Level Seattle Center
Tue 02:43:29 AM 45.8500 -119.8697 323° Northwest 446 513 40,000  Level Seattle Center
Tue 02:44:29 AM 45.9500 -119.9794 323° Northwest 451 519 40,000  Level Seattle Center
Tue 02:45:29 AM 46.0503 -120.0928 322° Northwest 458 527 40,000 -400 Level Seattle Center
Tue 02:46:29 AM 46.1494 -120.2025 323° Northwest 456 525 39,200 -1,636 Descending Seattle Center
Tue 02:47:30 AM 46.2467 -120.3097 323° Northwest 445 512 36,700 -2,777 Descending Seattle Center
Tue 02:48:30 AM 46.3439 -120.4206 322° Northwest 443 510 33,600 -3,000 Descending Seattle Center
Tue 02:49:30 AM 46.4419 -120.5306 322° Northwest 445 512 30,700 -2,850 Descending Seattle Center
Tue 02:50:30 AM 46.5378 -120.6456 320° Northwest 446 513 27,900 -2,628 Descending Seattle Center
Tue 02:51:31 AM 46.6178 -120.7800 311° West 440 506 25,400 -2,430 Descending Seattle Center
Tue 02:52:31 AM 46.6961 -120.9053 312° West 429 494 23,000 -2,350 Descending Seattle Center
Tue 02:53:31 AM 46.7719 -121.0261 313° West 410 472 20,700 -2,500 Descending Seattle Center
Tue 02:54:31 AM 46.8578 -121.1639 312° West 385 443 18,000 -2,450 Descending Seattle Center
Tue 02:55:31 AM 46.9272 -121.2742 313° West 368 423 15,800 -2,118 Descending Seattle Center
Tue 02:55:56 AM 46.9517 -121.3156 311° West 363 418 15,000 -2,066 Descending Seattle Center
Tue 02:56:32 AM 46.9914 -121.3867 309° West 359 413 13,700 -2,200 Descending Seattle Center
Tue 02:56:56 AM 47.0178 -121.4217 318° Northwest 351 404 12,800 -1,600 Descending Seattle Center
Tue 02:57:32 AM 47.0558 -121.4867 311° West 346 398 12,100 -787 Descending Seattle Center
Tue 02:57:57 AM 47.0825 -121.5319 311° West 328 377 12,000 -500 Descending Seattle Center
Tue 02:58:32 AM 47.0994 -121.5956 291° West 316 364 11,600 -1,091 Descending Seattle Center
Tue 02:59:03 AM 47.1142 -121.6614 288° West 305 351 10,800 -1,548 Descending Seattle Center
Tue 02:59:34 AM 47.1272 -121.7247 287° West 309 356 10,000 -1,418 Descending Seattle Center
Tue 02:59:58 AM 47.1358 -121.7700 286° West 304 350 9,500 -1,400 Descending Seattle Center
Tue 03:00:34 AM 47.1508 -121.8400 288° West 297 342 8,600 -1,377 Descending Seattle Center
Tue 03:00:59 AM 47.1611 -121.8833 289° West 290 334 8,100 -1,400 Descending Seattle Center
Tue 03:01:34 AM 47.1739 -121.9494 286° West 283 326 7,200 -1,444 Descending Seattle Center
Tue 03:01:53 AM 47.1803 -121.9836 285° West 276 318 6,800 -1,200 Descending Seattle Center
Tue 03:02:34 AM 47.1950 -122.0564 287° West 274 315 6,000 -1,164 Descending Seattle Center
Tue 03:03:00 AM 47.2025 -122.0956 286° West 265 305 5,500 -1,200 Descending Seattle Center
Tue 03:03:34 AM 47.2156 -122.1572 287° West 261 300 4,800 -1,100 Descending Seattle Center
Tue 03:04:00 AM 47.2233 -122.1950 287° West 252 290 4,400 -1,082 Descending Seattle Center
Tue 03:04:35 AM 47.2344 -122.2542 285° West 249 287 3,700 -1,180 Descending Seattle Center
Tue 03:05:01 AM 47.2450 -122.2875 295° West 239 275 3,200 -700 Descending Seattle Center
Tue 03:05:35 AM 47.2767 -122.3128 332° Northwest 233 268 3,000 -329 Descending Seattle Center
Tue 03:06:14 AM 47.3067 -122.3122 North 180 207 2,800 -500 Descending Seattle Center
Tue 03:06:35 AM 47.3247 -122.3122 360° North 176 203 2,500 -778 Descending Seattle Center
Tue 03:07:08 AM 47.3469 -122.3131 359° North 140 161 2,100 -800 Descending Seattle Center
Tue 03:07:35 AM 47.3667 -122.3119 North 154 177 1,700 -787 Descending Seattle Center
Tue 03:08:09 AM 47.3872 -122.3139 356° North 143 165 1,300 -700 Descending Seattle Center
Tue 03:08:35 AM 47.4053 -122.3114 North 141 162 1,000 -700 Descending Seattle Center
Tue 03:09:09 AM 47.4267 -122.3117 359° North 139 160 600 -700 Descending Seattle Center
Tue 03:09:35 AM 47.4444 -122.3119 359° North 142 163 300 -692 Descending Seattle Center
Tue 03:11:00 AM 47.4499 -122.3118 306° West  Level Estimated

Login

Don't have an account? Register now (free) for customized features, flight alerts, and more!